Location: Huberhof
(49.2050°N, 7.4980°E)
Time: 05:31:55
(UTC+00:00)

Cosmos 2228 - Pass Details

Date: 29 October 2020
Orbit: 590 x 617 km, 82.5° (Epoch: 25 November)

Event Time Altitude Azimuth Distance (km) Brightness Sun altitude
Rises 17:23:05 0° 202° (SSW) 2,817 6.9 -11.9°
Reaches altitude 10° 17:25:19 10° 208° (SSW) 1,923 6.1 -12.3°
Maximum altitude 17:29:27 49° 284° (WNW) 772 4.0 -12.9°
Drops below altitude 10° 17:33:38 10° 0° (N) 1,952 5.6 -13.6°
Sets 17:35:56 0° 6° (N) 2,865 6.4 -14.0°
